2024-170B

Last updated on Thu Oct 03 2024 00:02:04 GMT+0000 (Coordinated Universal Time)

1 61196U 24170B 24276.46692159 .00000356 00000+0 25869-3 0 9996 2 61196 44.8589 44.5863 0006970 331.2812 28.7640 14.13231274 1696
UTC large
Height (km)
Speed (km/s)
/
Latitude / Longitude
Inclination (degrees)
Orbital Period (minutes)
Azimuth
Elevation
Range (km)
Doppler Factor

Next 0 passes for location: London (51.5072 / 0.1276)

Sorry there are no passes over London.